Regional Weather Roundup
Issued by NWS

Home | Current Version | Previous Version | Graphics & Text | Print | Product List | Glossary On
Versions: 1 2 3 4 5 6 7 8 9 10 11 12 13 14 15 16 17 18 19 20 21 22 23 24 25 26 27 28 29 30 31 32 33 34 35 36 37 38 39 40 41 42 43 44 45 46 47 48 49 50
000
ASUS45 KTFX 241610
RWRMT
MONTANA REGIONAL WEATHER ROUNDUP
NATIONAL WEATHER SERVICE GREAT FALLS MT
900 AM MST SAT FEB 24 2018

NOTE: "FAIR" INDICATES FEW OR NO CLOUDS BELOW 12000 FEET WITH NO
SIGNIFICANT WEATHER AND/OR OBSTRUCTIONS TO VISIBILITY.

MTZ001>007-043-241700-
WEST OF THE DIVIDE

CITY           SKY/WX    TMP DP  RH WIND       PRES   REMARKS
KALISPELL      LGT SNOW  18  13  80 CALM      29.86S
MISSOULA       CLOUDY    15  11  83 W5        29.85F
BUTTE          PTSUNNY   19   5  54 CALM      29.76F
MULLAN PASS    LGT SNOW  12  11  95 VRB3      29.65F VSB 3/4
ANACONDA         N/A     19   7  58 MISG      29.77F
DEER LODGE       N/A     14   7  73 CALM      29.79F
HAMILTON         N/A     21  12  68 MISG      29.82F
PLAINS           N/A     19  10  68 MISG      29.89F
RONAN            N/A     19  16  86 NE8       29.86F WCI   9
$$

MTZ008-052>055-241700-
SOUTHWEST MONTANA

CITY           SKY/WX    TMP DP  RH WIND       PRES   REMARKS
BOZEMAN        CLOUDY    21   8  57 NE5       29.82S
DILLON         FAIR      10   6  84 SW13      29.81S WCI  -5
ENNIS          CLOUDY    18   7  62 S18       29.85S WCI   2
W YELLOWSTONE  LGT SNOW   9   3  78 VRB6G22   29.81F WCI  -1
THREE FORKS      N/A     20   8  59 MISG      29.83S
TWIN BRIDGES     N/A     20   4  50 CALM      29.84F
$$

MTZ009-010-012-014-046-048-049-054-241700-
EAST SLOPES AND CENTRAL MONTANA

CITY           SKY/WX    TMP DP  RH WIND       PRES   REMARKS
CUT BANK       FAIR      19   9  65 W29G36    29.61F WCI   0
GREAT FALLS    FAIR      20   9  62 SW20      29.70F WCI   4
MALMSTROM AFB  FAIR      21  11  66 SW23G29   29.72F WCI   5
HELENA         CLOUDY    19  11  70 E6        29.80F WCI  11
AUGUSTA          N/A     20   8  59 W16       29.66R WCI   6
BOWMANS CRNR   FAIR      16   9  72 S17       29.68S WCI   0
CHOTEAU          N/A     25   7  46 W14       29.69S WCI  13
CONRAD           N/A     19   5  54 S9        29.72S WCI   8
FAIRFIELD      PTSUNNY   23   9  55 SW15      29.68S WCI  10
POWER          FAIR      16   8  68 SW14      29.69S WCI   2
RAYNESFORD     PTSUNNY   23   6  48 SW21G26   29.70S WCI   8
ULM            PTSUNNY   21  12  69 SW14      29.73F WCI   8
WHITE SULPHUR    N/A     19   7  58 VRB6G13   29.72F WCI  11
$$

MTZ011-013-016-021-045-047-050-051-241700-
NORTH CENTRAL MONTANA

CITY           SKY/WX    TMP DP  RH WIND       PRES   REMARKS
HAVRE          FAIR       9   4  80 SW21      29.69S WCI -11
LEWISTOWN      FAIR      12   4  70 NW5       29.69F
N BAR RANCH    FAIR      18   1  49 VRB6      29.69F WCI   9
CHINOOK          N/A     19   9  63 W14       29.69S WCI   6
GEYSER         FAIR      19   9  63 W18       29.68R WCI   4
STANFORD       FAIR      20   9  61 W28       29.66F WCI   2
WINIFRED       FAIR      16   8  68 SW18      29.67F WCI   0
$$

MTZ017>020-022>027-061-062-241700-
NORTHEAST MONTANA

CITY           SKY/WX    TMP DP  RH WIND       PRES   REMARKS
GLASGOW        CLOUDY     6   1  80 SE5       29.70F
GLENDIVE       FAIR      -5 -12  72 S9        29.76S WCI -22
JORDAN           N/A     15   6  67 W9        29.73S WCI   3
MALTA          CLOUDY    12   5  73 W5        29.69F
SIDNEY         FAIR      -1  -7  75 S12       29.77S WCI -18
WOLF POINT     PTSUNNY   -6  -8  91 CALM      29.75F
PLENTYWOOD       N/A      1  -6  71 E6        29.68F WCI -10
POPLAR           N/A     -8 -13  77 N3        29.75F
SCOBEY           N/A      7  -3  63 S6        29.66F WCI  -3
$$

MTZ028>42-056>058-241700-
SOUTHCENTRAL AND SOUTHEAST MONTANA

CITY           SKY/WX    TMP DP  RH WIND       PRES   REMARKS
BAKER          FAIR      11   4  73 W17       29.74F WCI  -6
BILLINGS       PTSUNNY   16   5  62 SW14      29.76F WCI   2
LIVINGSTON     CLOUDY    23   8  52 W22G35    29.75F WCI   8
MILES CITY     PTSUNNY   -1  -4  87 S7        29.79F WCI -14
BIG TIMBER     SUNNY     23  10  58 W33G45    29.73F HAZE    WCI   5
EKALAKA          N/A     14   1  56 SW14      29.73R WCI  -1
FORSYTH          N/A      3  -2  78 W3        29.79S
HARLOWTON      FAIR      19   9  67 NW17G28   29.72S WCI   3
LAUREL           N/A     16   5  62 SW12      29.79F WCI   3
$$

REGIONAL REPORTS...DAKOTAS

CITY           SKY/WX    TMP DP  RH WIND       PRES   REMARKS
WILLISTON      FAIR      -1  -5  82 SW6       29.75F WCI -13
MINOT          PTSUNNY   13   3  64 S13       29.77F WCI  -2
DICKINSON      CLOUDY    15  11  83 S9        29.71F WCI   3
BEACH          FAIR      10   3  72 SW15      29.75F WCI  -6
CROSBY         FAIR       5  -2  72 SW15      29.71S WCI -13
TIOGA          FAIR       9   3  78 SW8G15    29.74S WCI  -4
WATFORD CITY   FAIR      10   3  72 CALM      29.75F
BISMARCK       CLOUDY    10   4  76 SW3       29.87F
GRAND FORKS    FAIR       6   2  83 S14       29.99F WCI -11
FARGO          FAIR       5   2  87 S10       30.04F VSB 1   WCI -10
BUFFALO SD       N/A      9   5  84 W7        29.67F WCI  -2
RAPID CITY     FAIR      12   5  73 N16       29.73S WCI  -5
$$

REGIONAL REPORTS...WYOMING/IDAHO/WASHINGTON

CITY           SKY/WX    TMP DP  RH WIND       PRES   REMARKS
GILLETTE       FAIR       8   1  73 CALM      29.76R
SHERIDAN       CLOUDY    15   2  56 CALM      29.77S
BUFFALO WY     PTSUNNY   14  -1  51 S8        29.73S WCI   3
CODY           FAIR      21   2  43 W23G30    29.76F WCI   5
YELLOWSTONE LA   N/A      5  -1  76 VRB6      29.79R WCI  -6
IDAHO FALLS    CLOUDY    19   9  65 SW18      30.00F WCI   4
SALMON         PTSUNNY   21  13  71 N5        29.91F
BOISE          PTSUNNY   26  21  81 SE12      30.01F WCI  16
SPOKANE        SNOW      25  24  96 E6        29.81F VSB 1/2 WCI  18
$$

REGIONAL REPORTS...ALBERTA

CITY           SKY/WX    TMP DP  RH WIND       PRES   REMARKS
CALGARY        MOSUNNY   23  -2  33 W21G29    29.60R WCI   8
EDMONTON       SUNNY     23   7  50 W12       29.56R WCI  12
FORT MCMURRAY  MOSUNNY   14  10  85 NW10      29.61R WCI   1
HIGH LEVEL     MOCLDY     1   0  92 CALM      29.72R
LETHBRIDGE     MOSUNNY   19   9  63 W25G31    29.64S WCI   2
LLOYDMINSTER   MOSUNNY   19  10  68 W16       29.48R WCI   5
MEDICINE HAT   LGT SNOW  21  18  86 W13       29.64S DRFTSNOWWCI   9
MILK RIVER       N/A     16   5  62 W16         N/A  WCI   0
ONEFOUR          N/A     12   5  73 NW18        N/A  WCI  -5
PEACE RIVER    FLURRIES  18  10  73 CALM      29.67R
PINCHER CREEK  PTSUNNY   18   9  68 W16       29.67R WCI   3
WATERTON GATE    N/A     23   5  46 SW24G40     N/A  WCI   7
$$

REGIONAL REPORTS...SASKATCHEWAN

CITY           SKY/WX    TMP DP  RH WIND       PRES   REMARKS
CYPRESS HILLS    N/A     18  14  86 W9G17       N/A  WCI   6
ESTEVAN        MOSUNNY    9   0  66 SW9       29.70F WCI  -5
MOOSE JAW        N/A     18  10  73 W10         N/A  WCI   6
PRINCE ALBERT  PTSUNNY    9   1  72 SW6       29.52S WCI  -1
REGINA         MOSUNNY    5  -2  72 S9        29.60F WCI  -9
ROCKGLEN         N/A      9   1  72 SW17        N/A  WCI -10
SASKATOON      PTSUNNY   14   7  73 SW10      29.54S WCI   1
VAL MARIE        N/A     16  12  86 W14         N/A  WCI   1
$$



USA.gov is the U.S. government's official web portal to all federal, state and local government web resources and services.